Fergus Falls, MN

3:22 AM CST on December 07, 2019 (GMT -0600)
Fergus Falls Municipal-Mickelson

Weather History for KFFM - October, 2019

Change the Weather History Date:

Friday, October 4, 2019

  Actual Average Record
Temperature  
Mean Temperature 44 °F -  
Max Temperature 48 °F 62 °F 84 °F (1975)
Min Temperature 41 °F 37 °F 22 °F (1968)
Degree Days  
Heating Degree Days 20    
Moisture  
Dew Point 37 °F    
Average Humidity 76    
Maximum Humidity 87    
Minimum Humidity 66    
Precipitation  
Precipitation 0.01 in - - ()
Sea Level Pressure  
Sea Level Pressure 30.30 in    
Wind  
Wind Speed 8 mph ()    
Max Wind Speed 18 mph    
Max Gust Speed 25 mph    
Visibility 10.0 miles    
Events Rain    
Averages and records for this station are not official NWS values.
T = Trace of Precipitation, MM = Missing Value Source: Averaged Metar Reports

Daily Weather History Graph

Daily Weather History Graph

Search for Another Location

Airport or City:

Astronomy

Oct. 04, 2019 Rise Set
Actual Time 7:26 AM CDT 6:59 PM CDT
Civil Twilight 6:56 AM CDT 7:29 PM CDT
Nautical Twilight 6:22 AM CDT 8:03 PM CDT
Astronomical Twilight 5:46 AM CDT 8:38 PM CDT
Moon 2:18 PM CDT (10/4) 11:10 PM CDT (10/4)
Length of Visible Light 12h 32m
Length of Day
11h 32m
Waxing Crescent, 40% of the Moon is Illuminated
Oct 4
Waxing Crescent
Oct 5
First Quarter
Oct 13
Full
Oct 21
Last Quarter
Oct 27
New

Hourly Weather History & Observations

Time (CDT) Temp. Windchill Dew Point Humidity Pressure Visibility Wind Dir Wind Speed Gust Speed Precip Events Conditions
12:15 AM 41.0 °F - 37.4 °F 87% 30.39 in 10.0 mi Calm Calm - N/A   Overcast
12:16 AM 41.0 °F - 37.4 °F 87% 30.39 in 10.0 mi Calm Calm - N/A   Overcast
12:35 AM 41.0 °F - 37.4 °F 87% 30.39 in 10.0 mi Calm Calm - N/A   Overcast
12:39 AM 41.0 °F - 37.4 °F 87% 30.39 in 10.0 mi Calm Calm - N/A   Overcast
12:57 AM 41.0 °F - 37.4 °F 87% 30.39 in 10.0 mi Calm Calm - N/A   Overcast
1:16 AM 42.8 °F 41.1 °F 37.4 °F 81% 30.40 in 10.0 mi SE 3.5 mph - N/A   Overcast
1:35 AM 42.8 °F - 37.4 °F 81% 30.40 in 10.0 mi Calm Calm - N/A   Overcast
1:36 AM 42.8 °F - 37.4 °F 81% 30.40 in 10.0 mi Calm Calm - N/A   Overcast
1:55 AM 42.8 °F - 37.4 °F 81% 30.41 in 10.0 mi Calm Calm - N/A   Overcast
2:19 AM 42.8 °F 41.1 °F 35.6 °F 76% 30.41 in 10.0 mi SE 3.5 mph - N/A   Overcast
2:36 AM 42.8 °F - 35.6 °F 76% 30.41 in 10.0 mi Calm Calm - N/A   Overcast
2:55 AM 42.8 °F - 37.4 °F 81% 30.41 in 10.0 mi Calm Calm - N/A   Overcast
3:15 AM 42.8 °F - 37.4 °F 81% 30.40 in 10.0 mi Calm Calm - N/A   Overcast
3:16 AM 42.8 °F - 37.4 °F 81% 30.40 in 10.0 mi Calm Calm - N/A   Overcast
3:35 AM 42.8 °F - 35.6 °F 76% 30.40 in 10.0 mi Calm Calm - N/A   Overcast
3:40 AM 42.8 °F - 35.6 °F 76% 30.40 in 10.0 mi Calm Calm - N/A   Overcast
3:57 AM 42.8 °F 41.1 °F 37.4 °F 81% 30.39 in 10.0 mi SE 3.5 mph - N/A   Overcast
4:15 AM 42.8 °F - 35.6 °F 76% 30.40 in 10.0 mi Calm Calm - N/A   Overcast
4:35 AM 42.8 °F - 37.4 °F 81% 30.40 in 10.0 mi Calm Calm - N/A   Overcast
4:55 AM 42.8 °F 39.3 °F 35.6 °F 76% 30.40 in 10.0 mi SE 5.8 mph - N/A   Overcast
4:56 AM 42.8 °F 38.6 °F 35.6 °F 76% 30.40 in 10.0 mi SE 6.9 mph - N/A   Overcast
5:18 AM 42.8 °F 39.3 °F 35.6 °F 76% 30.41 in 10.0 mi SSE 5.8 mph - N/A   Overcast
5:37 AM 42.8 °F 39.3 °F 37.4 °F 81% 30.41 in 10.0 mi SE 5.8 mph - N/A   Overcast
5:56 AM 42.8 °F 39.3 °F 37.4 °F 81% 30.41 in 10.0 mi SSE 5.8 mph - N/A   Overcast
6:15 AM 42.8 °F 38.6 °F 37.4 °F 81% 30.41 in 10.0 mi SSE 6.9 mph - N/A   Overcast
6:16 AM 42.8 °F 38.6 °F 37.4 °F 81% 30.41 in 10.0 mi SSE 6.9 mph - N/A   Overcast
6:35 AM 42.8 °F 37.5 °F 35.6 °F 76% 30.40 in 10.0 mi SSE 9.2 mph - N/A   Overcast
6:39 AM 42.8 °F 37.5 °F 35.6 °F 76% 30.40 in 10.0 mi SSE 9.2 mph - N/A   Overcast
6:57 AM 42.8 °F 37.5 °F 35.6 °F 76% 30.41 in 10.0 mi SSE 9.2 mph - N/A   Overcast
7:15 AM 42.8 °F 38.0 °F 37.4 °F 81% 30.41 in 10.0 mi South 8.1 mph - N/A   Overcast
7:16 AM 42.8 °F 37.5 °F 37.4 °F 81% 30.41 in 10.0 mi South 9.2 mph - N/A   Overcast
7:35 AM 42.8 °F 38.0 °F 37.4 °F 81% 30.41 in 10.0 mi South 8.1 mph - N/A   Overcast
7:36 AM 42.8 °F 38.0 °F 37.4 °F 81% 30.41 in 10.0 mi South 8.1 mph - N/A   Overcast
7:55 AM 42.8 °F 36.6 °F 35.6 °F 76% 30.41 in 10.0 mi South 11.5 mph 16.1 mph N/A   Overcast
7:59 AM 42.8 °F 35.8 °F 35.6 °F 76% 30.40 in 10.0 mi SSE 13.8 mph 18.4 mph N/A   Overcast
8:16 AM 42.8 °F 36.6 °F 35.6 °F 76% 30.40 in 10.0 mi SSE 11.5 mph 17.3 mph N/A   Overcast
8:36 AM 42.8 °F 36.2 °F 35.6 °F 76% 30.40 in 10.0 mi SSE 12.7 mph - N/A   Overcast
8:55 AM 42.8 °F 36.2 °F 35.6 °F 76% 30.40 in 10.0 mi SSE 12.7 mph 19.6 mph N/A   Overcast
8:56 AM 42.8 °F 35.8 °F 35.6 °F 76% 30.40 in 10.0 mi SSE 13.8 mph 19.6 mph N/A   Overcast
9:15 AM 44.6 °F 38.1 °F 35.6 °F 71% 30.39 in 10.0 mi SSE 13.8 mph - N/A   Overcast
9:19 AM 44.6 °F 38.8 °F 35.6 °F 71% 30.39 in 10.0 mi SSE 11.5 mph 16.1 mph N/A   Overcast
9:37 AM 44.6 °F 37.8 °F 35.6 °F 71% 30.39 in 10.0 mi SSE 15.0 mph 19.6 mph N/A   Overcast
9:55 AM 44.6 °F 37.2 °F 35.6 °F 71% 30.39 in 10.0 mi SSE 17.3 mph 21.9 mph N/A   Overcast
10:15 AM 44.6 °F 37.8 °F 35.6 °F 71% 30.38 in 10.0 mi SSE 15.0 mph 20.7 mph N/A   Overcast
10:16 AM 44.6 °F 37.4 °F 35.6 °F 71% 30.38 in 10.0 mi SSE 16.1 mph 20.7 mph N/A   Overcast
10:35 AM 44.6 °F 37.4 °F 37.4 °F 76% 30.38 in 10.0 mi SSE 16.1 mph - N/A   Overcast
10:36 AM 44.6 °F 37.4 °F 37.4 °F 76% 30.38 in 10.0 mi SSE 16.1 mph - N/A   Overcast
10:58 AM 44.6 °F 37.8 °F 37.4 °F 76% 30.38 in 10.0 mi South 15.0 mph - N/A   Overcast
11:17 AM 44.6 °F 37.2 °F 37.4 °F 76% 30.37 in 10.0 mi South 17.3 mph - N/A   Overcast
11:36 AM 44.6 °F 38.1 °F 37.4 °F 76% 30.37 in 10.0 mi South 13.8 mph - N/A   Overcast
11:55 AM 46.4 °F 39.8 °F 37.4 °F 71% 30.36 in 10.0 mi SSE 16.1 mph - N/A   Overcast
11:56 AM 46.4 °F 39.8 °F 37.4 °F 71% 30.36 in 10.0 mi SSE 16.1 mph - N/A   Overcast
12:15 PM 46.4 °F 40.7 °F 37.4 °F 71% 30.35 in 10.0 mi SE 12.7 mph - N/A   Overcast
12:19 PM 46.4 °F 39.8 °F 37.4 °F 71% 30.34 in 10.0 mi SSE 16.1 mph - N/A   Overcast
12:37 PM 46.4 °F 39.8 °F 37.4 °F 71% 30.34 in 10.0 mi SSE 16.1 mph - N/A   Overcast
12:56 PM 46.4 °F 39.8 °F 37.4 °F 71% 30.33 in 10.0 mi SSE 16.1 mph 21.9 mph N/A   Overcast
1:15 PM 46.4 °F 40.4 °F 37.4 °F 71% 30.32 in 10.0 mi SSE 13.8 mph 19.6 mph N/A   Overcast
1:16 PM 46.4 °F 40.4 °F 37.4 °F 71% 30.32 in 10.0 mi SSE 13.8 mph - N/A   Overcast
1:35 PM 46.4 °F 40.4 °F 39.2 °F 76% 30.31 in 10.0 mi SSE 13.8 mph - N/A   Overcast
1:36 PM 46.4 °F 40.4 °F 37.4 °F 71% 30.31 in 10.0 mi SSE 13.8 mph - N/A   Overcast
1:58 PM 46.4 °F 39.8 °F 39.2 °F 76% 30.31 in 10.0 mi SSE 16.1 mph - N/A   Overcast
2:16 PM 46.4 °F 40.1 °F 39.2 °F 76% 30.29 in 10.0 mi SSE 15.0 mph - N/A   Overcast
2:35 PM 48.2 °F - 37.4 °F 66% 30.27 in 10.0 mi SSE 16.1 mph - N/A   Overcast
2:36 PM 48.2 °F - 37.4 °F 66% 30.27 in 10.0 mi SSE 15.0 mph - N/A   Overcast
2:55 PM 48.2 °F - 37.4 °F 66% 30.27 in 10.0 mi SSE 16.1 mph 21.9 mph N/A   Overcast
2:56 PM 48.2 °F - 39.2 °F 71% 30.27 in 10.0 mi SSE 16.1 mph 21.9 mph N/A   Overcast
3:15 PM 48.2 °F - 37.4 °F 66% 30.26 in 10.0 mi SE 15.0 mph - N/A   Overcast
3:38 PM 48.2 °F - 37.4 °F 66% 30.24 in 10.0 mi SE 13.8 mph 21.9 mph N/A   Overcast
3:56 PM 46.4 °F 39.8 °F 37.4 °F 71% 30.24 in 10.0 mi SE 16.1 mph - N/A   Overcast
4:15 PM 46.4 °F 39.8 °F 37.4 °F 71% 30.22 in 10.0 mi SSE 16.1 mph 20.7 mph N/A   Overcast
4:16 PM 46.4 °F 40.1 °F 37.4 °F 71% 30.22 in 10.0 mi SSE 15.0 mph 20.7 mph N/A   Overcast
4:35 PM 46.4 °F 39.5 °F 37.4 °F 71% 30.22 in 10.0 mi SSE 17.3 mph 24.2 mph N/A   Overcast
4:36 PM 46.4 °F 39.5 °F 37.4 °F 71% 30.22 in 10.0 mi SSE 17.3 mph 24.2 mph N/A   Overcast
4:58 PM 48.2 °F - 37.4 °F 66% 30.20 in 10.0 mi SE 16.1 mph 21.9 mph N/A   Overcast
5:16 PM 48.2 °F - 37.4 °F 66% 30.20 in 10.0 mi SE 13.8 mph 19.6 mph N/A   Mostly Cloudy
5:35 PM 48.2 °F - 37.4 °F 66% 30.19 in 10.0 mi SE 16.1 mph 21.9 mph N/A   Mostly Cloudy
5:36 PM 48.2 °F - 37.4 °F 66% 30.19 in 10.0 mi SE 16.1 mph 21.9 mph N/A   Mostly Cloudy
5:55 PM 48.2 °F - 37.4 °F 66% 30.18 in 10.0 mi SSE 13.8 mph 23.0 mph N/A   Scattered Clouds
5:56 PM 48.2 °F - 37.4 °F 66% 30.18 in 10.0 mi SSE 15.0 mph 23.0 mph N/A   Scattered Clouds
6:15 PM 46.4 °F 40.7 °F 37.4 °F 71% 30.19 in 10.0 mi SSE 12.7 mph - N/A   Mostly Cloudy
6:19 PM 46.4 °F 40.4 °F 37.4 °F 71% 30.18 in 10.0 mi SSE 13.8 mph 18.4 mph N/A   Mostly Cloudy
6:38 PM 46.4 °F 40.1 °F 37.4 °F 71% 30.17 in 10.0 mi SE 15.0 mph 18.4 mph N/A   Overcast
6:55 PM 46.4 °F 40.7 °F 37.4 °F 71% 30.16 in 10.0 mi SE 12.7 mph 18.4 mph N/A   Overcast
7:15 PM 46.4 °F 40.4 °F 37.4 °F 71% 30.15 in 10.0 mi SE 13.8 mph - N/A   Overcast
7:16 PM 46.4 °F 40.1 °F 37.4 °F 71% 30.15 in 10.0 mi SE 15.0 mph - N/A   Overcast
7:35 PM 46.4 °F 40.7 °F 37.4 °F 71% 30.15 in 10.0 mi SE 12.7 mph 17.3 mph N/A   Mostly Cloudy
7:36 PM 46.4 °F 40.7 °F 37.4 °F 71% 30.15 in 10.0 mi SE 12.7 mph 17.3 mph N/A   Mostly Cloudy
7:58 PM 44.6 °F 37.2 °F 37.4 °F 76% 30.15 in 10.0 mi SE 17.3 mph 24.2 mph N/A   Mostly Cloudy
8:16 PM 44.6 °F 38.1 °F 37.4 °F 76% 30.14 in 10.0 mi SE 13.8 mph 21.9 mph N/A   Scattered Clouds
8:36 PM 44.6 °F 37.8 °F 37.4 °F 76% 30.14 in 10.0 mi SSE 15.0 mph 19.6 mph N/A   Mostly Cloudy
8:55 PM 44.6 °F 37.4 °F 37.4 °F 76% 30.13 in 10.0 mi SE 16.1 mph 21.9 mph N/A   Scattered Clouds
9:15 PM 44.6 °F 38.4 °F 37.4 °F 76% 30.13 in 10.0 mi SE 12.7 mph 18.4 mph N/A   Mostly Cloudy
9:19 PM 44.6 °F 37.2 °F 37.4 °F 76% 30.12 in 10.0 mi SE 17.3 mph 21.9 mph N/A   Mostly Cloudy
9:38 PM 44.6 °F 36.9 °F 37.4 °F 76% 30.13 in 10.0 mi SE 18.4 mph 24.2 mph N/A   Overcast
9:55 PM 44.6 °F 37.8 °F 39.2 °F 81% 30.11 in 10.0 mi SE 15.0 mph 21.9 mph N/A   Overcast
10:16 PM 44.6 °F 38.1 °F 39.2 °F 81% 30.10 in 10.0 mi SE 13.8 mph - N/A Rain Light Rain
10:35 PM 44.6 °F 38.4 °F 39.2 °F 81% 30.10 in 10.0 mi SE 12.7 mph 20.7 mph N/A   Overcast
10:58 PM 44.6 °F 38.4 °F 39.2 °F 81% 30.10 in 10.0 mi SE 12.7 mph 18.4 mph N/A   Overcast
11:16 PM 44.6 °F 38.1 °F 41.0 °F 87% 30.09 in 5.0 mi SE 13.8 mph - 0.01 in Rain Light Rain
11:35 PM 44.6 °F 37.8 °F 41.0 °F 87% 30.06 in 10.0 mi SE 15.0 mph 23.0 mph 0.01 in   Overcast
11:36 PM 44.6 °F 37.4 °F 41.0 °F 87% 30.06 in 10.0 mi SE 16.1 mph 23.0 mph 0.01 in   Overcast
11:55 PM 44.6 °F 37.2 °F 41.0 °F 87% 30.05 in 10.0 mi SE 17.3 mph 25.3 mph 0.01 in   Overcast
11:56 PM 44.6 °F 37.4 °F 41.0 °F 87% 30.05 in 10.0 mi SE 16.1 mph 25.3 mph N/A   Overcast